WZZ2941 EPKK-EFTU

Flight info

Callsign WZZ2941
Flight time 1h 43m
Altitude 37000
Route POBOK M985 KOTEK M866 GERVI M857 BOKSU DCT GUNTA M857 SOKVA/N0459F360 DCT LUXEM DCT UPAPU
Aircraft A321/M-SDE3FGHIRWY/LB1

Departure

Time 2026-04-25 19:26
Airport Kraków John Paul II International Airport (EPKK)

Arrival

Time 2026-04-25 21:10
Airport Turku Airport (EFTU)
Time Latitude Longitude Altitude Speed Heading
2026-04-25 18:35 50.07501 19.80270 788 ft 0 kts 162°
2026-04-25 19:23 50.07438 19.80308 788 ft 9 kts 141°
2026-04-25 19:23 50.07456 19.80368 787 ft 7 kts 13°
2026-04-25 19:24 50.07509 19.80382 787 ft 9 kts 10°
2026-04-25 19:24 50.07594 19.80410 787 ft 12 kts 355°
2026-04-25 19:24 50.07769 19.80350 787 ft 14 kts 348°
2026-04-25 19:25 50.07973 19.80294 786 ft 16 kts 345°
2026-04-25 19:25 50.08006 19.80214 787 ft 5 kts 231°
2026-04-25 19:25 50.08001 19.80118 788 ft 19 kts 260°
2026-04-25 19:26 50.07932 19.79676 790 ft 75 kts 258°
2026-04-25 19:26 50.07774 19.78541 795 ft 137 kts 258°
2026-04-25 19:26 50.07552 19.76944 1177 ft 153 kts 257°
2026-04-25 19:26 50.07331 19.75327 1910 ft 152 kts 261°
2026-04-25 19:27 50.07106 19.73718 2599 ft 154 kts 262°
2026-04-25 19:27 50.06953 19.72611 2864 ft 164 kts 262°
2026-04-25 19:27 50.06607 19.70085 3217 ft 193 kts 261°
2026-04-25 19:27 50.06308 19.67920 3467 ft 215 kts 260°
2026-04-25 19:28 50.06075 19.65598 4150 ft 218 kts 275°
2026-04-25 19:28 50.06662 19.63440 4813 ft 230 kts 310°
2026-04-25 19:28 50.08105 19.62132 5320 ft 253 kts 337°
2026-04-25 19:28 50.09856 19.61533 6105 ft 261 kts 346°
2026-04-25 19:29 50.11660 19.61336 6872 ft 270 kts 358°
2026-04-25 19:29 50.13498 19.62243 7592 ft 290 kts 25°
2026-04-25 19:29 50.15134 19.64162 8341 ft 296 kts 32°
2026-04-25 19:29 50.16762 19.66163 9120 ft 299 kts 31°
2026-04-25 19:30 50.18403 19.68176 9879 ft 302 kts 31°
2026-04-25 19:30 50.20108 19.70234 10228 ft 320 kts 31°
2026-04-25 19:30 50.21940 19.72419 10401 ft 342 kts 31°
2026-04-25 19:30 50.23867 19.74727 10889 ft 352 kts 31°
2026-04-25 19:31 50.25818 19.77085 11533 ft 357 kts 32°
2026-04-25 19:31 50.27794 19.79487 12182 ft 362 kts 32°
2026-04-25 19:31 50.29790 19.81918 12828 ft 366 kts 31°
2026-04-25 19:31 50.31810 19.84383 13461 ft 371 kts 32°
2026-04-25 19:32 50.33861 19.86887 14044 ft 375 kts 32°
2026-04-25 19:32 50.35932 19.89417 14625 ft 379 kts 31°
2026-04-25 19:32 50.38019 19.91968 15251 ft 382 kts 31°
2026-04-25 19:32 50.39411 19.93669 15662 ft 384 kts 31°
2026-04-25 19:33 50.42213 19.97105 16487 ft 388 kts 31°
2026-04-25 19:33 50.44348 19.99726 17107 ft 391 kts 31°
2026-04-25 19:33 50.46502 20.02367 17707 ft 394 kts 31°
2026-04-25 19:33 50.48672 20.05025 18284 ft 398 kts 31°
2026-04-25 19:34 50.50867 20.07717 18803 ft 401 kts 31°
2026-04-25 19:34 50.53073 20.10425 19328 ft 404 kts 31°
2026-04-25 19:34 50.55295 20.13158 19856 ft 407 kts 31°
2026-04-25 19:34 50.57528 20.15913 20389 ft 410 kts 31°
2026-04-25 19:35 50.59780 20.18700 20923 ft 413 kts 31°
2026-04-25 19:35 50.62048 20.21512 21455 ft 416 kts 31°
2026-04-25 19:35 50.64331 20.24340 21983 ft 419 kts 31°
2026-04-25 19:35 50.66610 20.27165 22494 ft 422 kts 31°
2026-04-25 19:36 50.68926 20.30039 23007 ft 425 kts 31°
2026-04-25 19:36 50.71253 20.32933 23480 ft 428 kts 31°
2026-04-25 19:36 50.73603 20.35859 23883 ft 430 kts 31°
2026-04-25 19:36 50.75961 20.38796 24304 ft 432 kts 31°
2026-04-25 19:37 50.78331 20.41749 24701 ft 435 kts 31°
2026-04-25 19:37 50.80713 20.44723 25105 ft 437 kts 31°
2026-04-25 19:37 50.83076 20.47682 25493 ft 440 kts 31°
2026-04-25 19:37 50.85511 20.50740 25886 ft 442 kts 31°
2026-04-25 19:38 50.87895 20.53736 26258 ft 444 kts 31°
2026-04-25 19:38 50.90322 20.56787 26648 ft 447 kts 31°
2026-04-25 19:38 50.92764 20.59860 27005 ft 449 kts 31°
2026-04-25 19:38 50.95219 20.62955 27383 ft 452 kts 31°
2026-04-25 19:39 50.97681 20.66065 27752 ft 454 kts 31°
2026-04-25 19:39 51.00163 20.69202 28116 ft 457 kts 31°
2026-04-25 19:39 51.02660 20.72358 28479 ft 459 kts 31°
2026-04-25 19:39 51.05161 20.75523 28829 ft 461 kts 31°
2026-04-25 19:40 51.07677 20.78715 29151 ft 464 kts 32°
2026-04-25 19:40 51.10203 20.81927 29486 ft 466 kts 32°
2026-04-25 19:40 51.12752 20.85172 29812 ft 469 kts 32°
2026-04-25 19:40 51.15305 20.88427 30102 ft 471 kts 32°
2026-04-25 19:41 51.17872 20.91708 30386 ft 473 kts 32°
2026-04-25 19:41 51.20416 20.94964 30673 ft 475 kts 32°
2026-04-25 19:41 51.22999 20.98274 30993 ft 476 kts 32°
2026-04-25 19:41 51.23872 20.99393 31126 ft 476 kts 32°
2026-04-25 19:42 51.28154 21.04887 31815 ft 474 kts 31°
2026-04-25 19:42 51.30722 21.08187 32235 ft 473 kts 31°
2026-04-25 19:42 51.33285 21.11484 32634 ft 472 kts 31°
2026-04-25 19:42 51.35839 21.14775 33025 ft 471 kts 31°
2026-04-25 19:43 51.38386 21.18065 33420 ft 470 kts 31°
2026-04-25 19:43 51.40930 21.21355 33824 ft 469 kts 31°
2026-04-25 19:43 51.43473 21.24649 34152 ft 468 kts 31°
2026-04-25 19:43 51.46011 21.27943 34464 ft 468 kts 31°
2026-04-25 19:44 51.48543 21.31235 34745 ft 468 kts 31°
2026-04-25 19:44 51.51046 21.34493 35019 ft 468 kts 31°
2026-04-25 19:44 51.53576 21.37787 35295 ft 469 kts 31°
2026-04-25 19:44 51.56100 21.41076 35563 ft 469 kts 31°
2026-04-25 19:45 51.58631 21.44384 35831 ft 469 kts 32°
2026-04-25 19:45 51.61164 21.47698 36084 ft 470 kts 32°
2026-04-25 19:45 51.63704 21.51029 36335 ft 470 kts 32°
2026-04-25 19:45 51.66240 21.54357 36568 ft 470 kts 32°
2026-04-25 19:46 51.68775 21.57683 36751 ft 471 kts 32°
2026-04-25 19:46 51.71314 21.61028 36793 ft 471 kts 32°
2026-04-25 19:46 51.76273 21.67588 36784 ft 472 kts 32°
2026-04-25 19:47 51.81350 21.74308 36783 ft 472 kts 32°
2026-04-25 19:47 51.86436 21.81050 36778 ft 473 kts 32°
2026-04-25 19:48 51.91482 21.87775 36773 ft 473 kts 32°
2026-04-25 19:48 51.96571 21.94571 36782 ft 474 kts 32°
2026-04-25 19:49 51.99974 21.99122 36781 ft 475 kts 32°
2026-04-25 19:49 52.06767 22.08251 36789 ft 476 kts 32°
2026-04-25 19:50 52.14572 22.18038 36786 ft 465 kts 21°
2026-04-25 19:51 52.20503 22.21829 36780 ft 447 kts
2026-04-25 19:51 52.26533 22.23922 36776 ft 447 kts
2026-04-25 19:52 52.32621 22.26062 36776 ft 448 kts
2026-04-25 19:52 52.38714 22.28211 36767 ft 448 kts
2026-04-25 19:53 52.44821 22.30367 36769 ft 449 kts
2026-04-25 19:53 52.50935 22.32527 36769 ft 450 kts
2026-04-25 19:54 52.57061 22.34709 36769 ft 450 kts
2026-04-25 19:54 52.63188 22.36899 36765 ft 451 kts
2026-04-25 19:55 52.69320 22.39095 36764 ft 451 kts
2026-04-25 19:55 52.75457 22.41299 36764 ft 452 kts
2026-04-25 19:56 52.81614 22.43515 36762 ft 453 kts
2026-04-25 19:56 52.87772 22.45726 36761 ft 453 kts
2026-04-25 19:57 52.92906 22.47577 36758 ft 454 kts
2026-04-25 19:57 52.99081 22.49814 36760 ft 454 kts
2026-04-25 19:58 53.06275 22.52433 36758 ft 455 kts
2026-04-25 19:58 53.11455 22.54323 36761 ft 455 kts
2026-04-25 19:59 53.17652 22.56596 36759 ft 456 kts
2026-04-25 19:59 53.23852 22.58880 36756 ft 456 kts
2026-04-25 20:00 53.30024 22.61155 36755 ft 457 kts
2026-04-25 20:00 53.36247 22.63442 36749 ft 458 kts
2026-04-25 20:01 53.45587 22.66894 36743 ft 459 kts
2026-04-25 20:01 53.51825 22.69225 36733 ft 459 kts
2026-04-25 20:02 53.58068 22.71559 36733 ft 459 kts
2026-04-25 20:02 53.64277 22.73876 36737 ft 460 kts
2026-04-25 20:03 53.70532 22.76221 36729 ft 460 kts
2026-04-25 20:03 53.76789 22.78567 36722 ft 461 kts
2026-04-25 20:04 53.83049 22.80924 36722 ft 461 kts
2026-04-25 20:04 53.89321 22.83307 36719 ft 462 kts
2026-04-25 20:05 53.95557 22.85678 36721 ft 462 kts
2026-04-25 20:05 54.01830 22.88069 36719 ft 461 kts
2026-04-25 20:06 54.08065 22.90747 36706 ft 467 kts 14°
2026-04-25 20:06 54.14134 22.94789 36705 ft 468 kts 14°
2026-04-25 20:07 54.20199 22.98847 36700 ft 468 kts 14°
2026-04-25 20:07 54.26262 23.02908 36699 ft 467 kts 15°
2026-04-25 20:08 54.32378 23.06445 36692 ft 458 kts
2026-04-25 20:08 54.38627 23.08426 36692 ft 456 kts
2026-04-25 20:09 54.44871 23.10435 36684 ft 456 kts
2026-04-25 20:09 54.51085 23.12455 36680 ft 457 kts
2026-04-25 20:10 54.57349 23.14479 36676 ft 458 kts
2026-04-25 20:10 54.63617 23.16508 36671 ft 458 kts
2026-04-25 20:11 54.69901 23.18549 36666 ft 459 kts
2026-04-25 20:11 54.76185 23.20614 36668 ft 460 kts
2026-04-25 20:12 54.82482 23.22682 36662 ft 460 kts
2026-04-25 20:12 54.87714 23.24409 36665 ft 460 kts
2026-04-25 20:13 54.95039 23.26828 36660 ft 460 kts
2026-04-25 20:13 55.01332 23.28912 36661 ft 460 kts
2026-04-25 20:14 55.07628 23.31009 36663 ft 460 kts
2026-04-25 20:14 55.13925 23.33103 36658 ft 460 kts
2026-04-25 20:15 55.20167 23.35188 36656 ft 459 kts
2026-04-25 20:15 55.26441 23.37291 36657 ft 459 kts
2026-04-25 20:16 55.32715 23.39396 36651 ft 459 kts
2026-04-25 20:16 55.38989 23.41510 36648 ft 459 kts
2026-04-25 20:17 55.45271 23.43636 36644 ft 459 kts
2026-04-25 20:17 55.51553 23.45771 36644 ft 459 kts
2026-04-25 20:18 55.57825 23.47909 36645 ft 459 kts
2026-04-25 20:18 55.64112 23.50057 36642 ft 459 kts
2026-04-25 20:19 55.70352 23.52209 36643 ft 460 kts
2026-04-25 20:19 55.76638 23.54374 36646 ft 460 kts
2026-04-25 20:20 55.82942 23.56547 36650 ft 460 kts
2026-04-25 20:20 55.89233 23.58727 36648 ft 461 kts
2026-04-25 20:21 55.95535 23.60918 36646 ft 461 kts
2026-04-25 20:21 56.01791 23.63093 36641 ft 461 kts
2026-04-25 20:22 56.06016 23.64564 36640 ft 462 kts
2026-04-25 20:22 56.14388 23.67508 36611 ft 460 kts
2026-04-25 20:23 56.20679 23.69727 36610 ft 461 kts
2026-04-25 20:23 56.26976 23.71949 36611 ft 461 kts
2026-04-25 20:24 56.33294 23.73660 36609 ft 453 kts 353°
2026-04-25 20:24 56.39550 23.72703 36611 ft 451 kts 350°
2026-04-25 20:25 56.45814 23.71634 36617 ft 452 kts 350°
2026-04-25 20:25 56.52085 23.70552 36625 ft 453 kts 350°
2026-04-25 20:26 56.58326 23.69492 36625 ft 454 kts 351°
2026-04-25 20:26 56.64576 23.68434 36630 ft 454 kts 351°
2026-04-25 20:27 56.70862 23.67355 36633 ft 454 kts 350°
2026-04-25 20:27 56.77167 23.66253 36636 ft 454 kts 350°
2026-04-25 20:28 56.83464 23.65156 36638 ft 455 kts 351°
2026-04-25 20:28 56.89763 23.64075 36638 ft 455 kts 351°
2026-04-25 20:29 56.96064 23.62970 36638 ft 455 kts 350°
2026-04-25 20:29 57.02371 23.61866 36635 ft 455 kts 351°
2026-04-25 20:30 57.08679 23.60770 36633 ft 455 kts 351°
2026-04-25 20:30 57.14989 23.59667 36630 ft 455 kts 351°
2026-04-25 20:31 57.21296 23.58547 36627 ft 455 kts 351°
2026-04-25 20:31 57.27557 23.57434 36624 ft 455 kts 351°
2026-04-25 20:32 57.33858 23.56309 36626 ft 455 kts 351°
2026-04-25 20:32 57.40158 23.55188 36621 ft 455 kts 350°
2026-04-25 20:33 57.46454 23.54054 36625 ft 454 kts 350°
2026-04-25 20:33 57.50668 23.53303 36624 ft 454 kts 351°
2026-04-25 20:34 57.59045 23.51804 36621 ft 454 kts 350°
2026-04-25 20:34 57.65333 23.50659 36618 ft 454 kts 351°
2026-04-25 20:35 57.71574 23.49520 36618 ft 454 kts 351°
2026-04-25 20:35 57.77853 23.48381 36617 ft 453 kts 351°
2026-04-25 20:36 57.84134 23.47238 36614 ft 453 kts 351°
2026-04-25 20:36 57.90418 23.46088 36613 ft 453 kts 351°
2026-04-25 20:37 57.96699 23.44918 36603 ft 453 kts 350°
2026-04-25 20:37 58.02977 23.43761 36612 ft 453 kts 351°
2026-04-25 20:38 58.09261 23.42610 36606 ft 453 kts 351°
2026-04-25 20:38 58.15496 23.41454 36601 ft 453 kts 351°
2026-04-25 20:39 58.21770 23.40281 36604 ft 453 kts 351°
2026-04-25 20:39 58.25963 23.39497 36599 ft 453 kts 351°
2026-04-25 20:40 58.34319 23.37917 36601 ft 452 kts 351°
2026-04-25 20:40 58.40583 23.36743 36604 ft 452 kts 351°
2026-04-25 20:41 58.46844 23.35565 36601 ft 452 kts 351°
2026-04-25 20:41 58.53105 23.34363 36604 ft 452 kts 351°
2026-04-25 20:42 58.59337 23.33157 36595 ft 452 kts 351°
2026-04-25 20:42 58.65602 23.31948 36540 ft 452 kts 351°
2026-04-25 20:43 58.68749 23.31341 35733 ft 458 kts 351°
2026-04-25 20:43 58.71914 23.30735 35235 ft 456 kts 351°
2026-04-25 20:43 58.75071 23.30136 34740 ft 454 kts 351°
2026-04-25 20:43 58.78207 23.29539 34243 ft 452 kts 351°
2026-04-25 20:44 58.81335 23.28939 33745 ft 451 kts 351°
2026-04-25 20:44 58.84418 23.28343 33209 ft 450 kts 351°
2026-04-25 20:44 58.87521 23.27745 32714 ft 446 kts 351°
2026-04-25 20:44 58.90602 23.27151 32227 ft 442 kts 351°
2026-04-25 20:45 58.93654 23.26559 31730 ft 439 kts 351°
2026-04-25 20:45 58.96679 23.25970 31244 ft 435 kts 351°
2026-04-25 20:45 58.99684 23.25385 30759 ft 432 kts 350°
2026-04-25 20:45 59.02660 23.24804 30281 ft 428 kts 351°
2026-04-25 20:46 59.05611 23.24225 29816 ft 424 kts 351°
2026-04-25 20:46 59.08518 23.23652 29570 ft 414 kts 351°
2026-04-25 20:46 59.13167 23.22745 29556 ft 398 kts 351°
2026-04-25 20:47 59.15920 23.22206 29192 ft 398 kts 351°
2026-04-25 20:47 59.19626 23.21466 27959 ft 406 kts 351°
2026-04-25 20:47 59.21521 23.21084 27571 ft 404 kts 351°
2026-04-25 20:47 59.24263 23.20107 27056 ft 396 kts 340°
2026-04-25 20:48 59.26856 23.18427 26585 ft 390 kts 339°
2026-04-25 20:48 59.29368 23.16760 26150 ft 384 kts 338°
2026-04-25 20:48 59.31886 23.15089 25694 ft 380 kts 339°
2026-04-25 20:48 59.34375 23.13436 25261 ft 375 kts 339°
2026-04-25 20:49 59.36832 23.11799 24832 ft 371 kts 339°
2026-04-25 20:49 59.39265 23.10173 24439 ft 366 kts 339°
2026-04-25 20:49 59.41668 23.08565 24016 ft 363 kts 339°
2026-04-25 20:49 59.44094 23.07313 23563 ft 357 kts 345°
2026-04-25 20:50 59.46503 23.06304 22555 ft 351 kts 346°
2026-04-25 20:50 59.48881 23.05364 21488 ft 345 kts 346°
2026-04-25 20:50 59.51216 23.04463 20453 ft 339 kts 346°
2026-04-25 20:50 59.53504 23.03576 19598 ft 329 kts 346°
2026-04-25 20:51 59.55702 23.02714 19302 ft 319 kts 346°
2026-04-25 20:51 59.57861 23.01855 18938 ft 314 kts 346°
2026-04-25 20:51 59.59987 23.01002 18561 ft 310 kts 345°
2026-04-25 20:51 59.62083 23.00160 18192 ft 305 kts 346°
2026-04-25 20:52 59.64155 22.99324 17825 ft 302 kts 346°
2026-04-25 20:52 59.65506 22.98778 17572 ft 299 kts 346°
2026-04-25 20:52 59.68183 22.97695 17067 ft 293 kts 346°
2026-04-25 20:52 59.70159 22.96891 16735 ft 288 kts 346°
2026-04-25 20:53 59.72107 22.96098 16400 ft 283 kts 346°
2026-04-25 20:53 59.74025 22.95320 16054 ft 279 kts 347°
2026-04-25 20:53 59.75918 22.94554 15719 ft 275 kts 347°
2026-04-25 20:53 59.77783 22.93796 15384 ft 272 kts 347°
2026-04-25 20:54 59.79624 22.93046 15057 ft 268 kts 347°
2026-04-25 20:54 59.81442 22.92298 14737 ft 265 kts 347°
2026-04-25 20:54 59.83240 22.91557 14426 ft 262 kts 347°
2026-04-25 20:54 59.85020 22.90826 14109 ft 260 kts 348°
2026-04-25 20:55 59.86785 22.90106 13799 ft 258 kts 348°
2026-04-25 20:55 59.88537 22.89392 13486 ft 256 kts 348°
2026-04-25 20:55 59.90274 22.88683 13166 ft 254 kts 348°
2026-04-25 20:55 59.92004 22.87976 12842 ft 252 kts 348°
2026-04-25 20:56 59.93700 22.87280 12544 ft 251 kts 348°
2026-04-25 20:56 59.95407 22.86574 12247 ft 249 kts 348°
2026-04-25 20:56 59.97097 22.85876 11946 ft 247 kts 348°
2026-04-25 20:56 59.98777 22.85187 11650 ft 245 kts 348°
2026-04-25 20:57 60.00443 22.84504 11355 ft 243 kts 348°
2026-04-25 20:57 60.02099 22.83823 11061 ft 241 kts 348°
2026-04-25 20:57 60.03739 22.83146 10774 ft 239 kts 348°
2026-04-25 20:57 60.05359 22.82473 10490 ft 236 kts 348°
2026-04-25 20:58 60.06956 22.81809 10190 ft 233 kts 348°
2026-04-25 20:58 60.08533 22.81151 9910 ft 230 kts 348°
2026-04-25 20:58 60.10088 22.80501 9641 ft 227 kts 348°
2026-04-25 20:58 60.11625 22.79865 9356 ft 224 kts 349°
2026-04-25 20:59 60.13146 22.79235 9061 ft 221 kts 349°
2026-04-25 20:59 60.14644 22.78617 8791 ft 218 kts 349°
2026-04-25 20:59 60.16125 22.78000 8749 ft 218 kts 349°
2026-04-25 20:59 60.17594 22.77384 8618 ft 219 kts 349°
2026-04-25 21:00 60.19078 22.76763 8391 ft 217 kts 349°
2026-04-25 21:00 60.20073 22.76350 8222 ft 216 kts 349°
2026-04-25 21:00 60.23473 22.74931 7616 ft 213 kts 349°
2026-04-25 21:01 60.24924 22.74321 7351 ft 212 kts 349°
2026-04-25 21:01 60.26366 22.73713 7094 ft 211 kts 349°
2026-04-25 21:01 60.27804 22.73108 6832 ft 210 kts 349°
2026-04-25 21:01 60.29233 22.72506 6572 ft 209 kts 349°
2026-04-25 21:02 60.30657 22.71907 6314 ft 208 kts 350°
2026-04-25 21:02 60.32069 22.71313 6055 ft 207 kts 350°
2026-04-25 21:02 60.33481 22.70720 5786 ft 207 kts 350°
2026-04-25 21:02 60.34888 22.70129 5522 ft 206 kts 350°
2026-04-25 21:03 60.36269 22.69550 5270 ft 205 kts 350°
2026-04-25 21:03 60.37662 22.68964 5006 ft 204 kts 350°
2026-04-25 21:03 60.39050 22.68378 4757 ft 203 kts 350°
2026-04-25 21:03 60.40434 22.67794 4508 ft 203 kts 350°
2026-04-25 21:04 60.41813 22.67213 4248 ft 202 kts 350°
2026-04-25 21:04 60.43181 22.66637 3995 ft 200 kts 350°
2026-04-25 21:04 60.44494 22.66082 3950 ft 184 kts 350°
2026-04-25 21:04 60.45704 22.65565 3866 ft 172 kts 350°
2026-04-25 21:05 60.46863 22.65070 3799 ft 169 kts 350°
2026-04-25 21:05 60.48012 22.64580 3719 ft 168 kts 350°
2026-04-25 21:05 60.49143 22.64098 3650 ft 168 kts 350°
2026-04-25 21:05 60.50288 22.63611 3582 ft 168 kts 350°
2026-04-25 21:06 60.51424 22.63092 3495 ft 168 kts 344°
2026-04-25 21:06 60.52393 22.61719 3413 ft 178 kts 316°
2026-04-25 21:06 60.52825 22.59285 3276 ft 194 kts 282°
2026-04-25 21:06 60.52761 22.57450 3128 ft 189 kts 276°
2026-04-25 21:07 60.52604 22.54045 2783 ft 178 kts 277°
2026-04-25 21:07 60.52499 22.51588 2530 ft 169 kts 278°
2026-04-25 21:07 60.52400 22.49318 2299 ft 156 kts 279°
2026-04-25 21:07 60.52310 22.47161 2081 ft 151 kts 279°
2026-04-25 21:08 60.52224 22.45040 1841 ft 150 kts 278°
2026-04-25 21:08 60.52126 22.42920 1680 ft 148 kts 277°
2026-04-25 21:08 60.52017 22.40872 1495 ft 143 kts 277°
2026-04-25 21:08 60.51932 22.38890 1260 ft 140 kts 277°
2026-04-25 21:09 60.51799 22.34989 812 ft 137 kts 273°
2026-04-25 21:09 60.51702 22.33056 635 ft 138 kts 271°
2026-04-25 21:09 60.51620 22.31117 456 ft 139 kts 270°
2026-04-25 21:10 60.51532 22.29159 268 ft 138 kts 269°
2026-04-25 21:10 60.51458 22.27303 167 ft 119 kts 267°
2026-04-25 21:10 60.51411 22.26195 168 ft 35 kts 265°
2026-04-25 21:10 60.51394 22.25855 165 ft 27 kts 262°
2026-04-25 21:11 60.51374 22.25435 160 ft 24 kts 264°
2026-04-25 21:11 60.51311 22.25283 156 ft 14 kts 201°
2026-04-25 21:11 60.51216 22.25344 151 ft 17 kts 123°
2026-04-25 21:11 60.51209 22.25523 156 ft 11 kts 88°
2026-04-25 21:12 60.51212 22.25658 160 ft 8 kts 87°
2026-04-25 21:12 60.51216 22.25776 163 ft 10 kts 86°
2026-04-25 21:12 60.51226 22.25983 168 ft 19 kts 83°
2026-04-25 21:12 60.51243 22.26154 170 ft 19 kts 66°
2026-04-25 21:13 60.51298 22.26498 171 ft 20 kts 84°
2026-04-25 21:13 60.51309 22.26788 172 ft 20 kts 82°
2026-04-25 21:13 60.51323 22.27057 172 ft 18 kts 83°
2026-04-25 21:13 60.51323 22.27285 171 ft 11 kts 120°
2026-04-25 21:14 60.51277 22.27284 173 ft 6 kts 205°
2026-04-25 21:14 60.51223 22.27284 174 ft 10 kts 150°
2026-04-25 21:14 60.51184 22.27332 175 ft 1 kts 149°
2026-04-25 21:14 60.51180 22.27336 175 ft 0 kts 149°